Regional Weather Roundup
Issued by NWS

Home | Current Version | Previous Version | Text Only | Print | Product List | Glossary On
Versions: 1 2 3 4 5 6 7 8 9 10 11 12 13 14 15 16 17 18 19 20 21 22 23 24 25 26 27 28 29 30 31 32 33 34 35 36 37 38 39 40 41 42 43 44 45 46 47 48 49 50
000
ASUS43 KLMK 231510
RWRKY
KENTUCKY REGIONAL WEATHER ROUNDUP
NATIONAL WEATHER SERVICE LOUISVILLE KY
1100 AM EDT TUE MAY 23 2017

NOTE "FAIR" INDICATES FEW OR NO CLOUDS BELOW 12,000 FEET
WITH NO SIGNIFICANT WEATHER AND/OR OBSTRUCTIONS TO VISIBILITY.

KYZ001>023-026-027-061>063-070>075-231600-
WESTERN AND SOUTH CENTRAL KENTUCKY

CITY           SKY/WX    TMP DP  RH WIND       PRES   REMARKS
PADUCAH        CLOUDY    70  52  52 CALM      29.77F
HENDERSON      CLOUDY    69  52  54 CALM      29.80F
OWENSBORO      CLOUDY    69  52  54 CALM      29.80F
HOPKINSVILLE   CLOUDY    68  56  66 CALM      29.78F
BOWLING GREEN  MOSUNNY   67  58  72 NE3       29.79F
GLASGOW        CLOUDY    65  56  74 E3        29.79F
$$

KYZ024-025-028>034-038-045-046-053-231600-
NORTH CENTRAL KENTUCKY

CITY           SKY/WX    TMP DP  RH WIND       PRES   REMARKS
LOUISVILLE/SDF CLOUDY    70  56  61 SE8       29.80F
LOUISVILLE/LOU SUNNY     69  55  60 E8        29.80F
FORT KNOX      PTSUNNY   64  55  71 E6        29.79S
$$

KYZ035>037-039>044-047>052-055>060-089>105-231600-
NORTHEAST KENTUCKY

CITY           SKY/WX    TMP DP  RH WIND       PRES   REMARKS
LEXINGTON      PTSUNNY   67  53  61 NE6       29.82F
COVINGTON      MOSUNNY   65  51  60 SE10      29.83F
FRANKFORT      CLOUDY    67  53  61 E6        29.80F
$$

KYZ054-064>069-076>088-106>120-231600-
SOUTHEAST KENTUCKY

CITY           SKY/WX    TMP DP  RH WIND       PRES   REMARKS
JACKSON        MOSUNNY   64  56  75 CALM      29.82F
LONDON         CLOUDY    65  56  72 CALM      29.82F
SOMERSET       CLOUDY    63  54  72 CALM      29.83S
MIDDLESBORO    CLOUDY    65  59  79 CALM      29.82F
MONTICELLO     CLOUDY    64  58  80 NE8       29.82F
$$





USA.gov is the U.S. government's official web portal to all federal, state and local government web resources and services.